EST,Max TemperatureF,Mean TemperatureF,Min TemperatureF,Max Dew PointF,MeanDew PointF,Min DewpointF,Max Humidity, Mean Humidity, Min Humidity, Max Sea Level PressureIn, Mean Sea Level PressureIn, Min Sea Level PressureIn, Max VisibilityMiles, Mean VisibilityMiles, Min VisibilityMiles, Max Wind SpeedMPH, Mean Wind SpeedMPH, Max Gust SpeedMPH,PrecipitationIn, CloudCover, Events, WindDirDegrees
2012-11-1,64,53,42,39,33,27,81,51,24,29.94,29.87,29.81,10,10,10,14,5,22,0.00,0,,270
2012-11-2,73,55,37,52,40,30,88,57,29,30.01,29.94,29.86,10,9,2,16,5,22,0.00,0,,246
2012-11-3,68,56,44,50,44,36,94,68,32,30.13,30.05,29.94,10,10,9,7,3,,0.00,0,,54
2012-11-4,80,66,51,64,59,48,100,82,45,30.05,29.97,29.90,10,9,2,16,5,31,0.17,1,Rain-Thunderstorm,212
2012-11-5,64,55,46,61,48,37,100,79,37,30.06,30.00,29.93,10,8,1,12,4,17,0.00,3,,14
2012-11-6,55,48,42,46,43,39,93,82,63,30.04,29.96,29.88,10,9,2,12,5,16,0.01,3,Rain,9
2012-11-7,57,48,39,43,38,36,93,77,48,29.98,29.90,29.84,10,10,8,10,6,17,0.00,1,,330
2012-11-8,64,52,39,45,39,32,100,76,30,30.14,30.07,29.98,10,7,2,15,5,18,0.00,0,,324
2012-11-9,66,50,33,45,37,28,100,74,26,30.29,30.24,30.14,10,9,4,7,2,,0.00,0,,32
2012-11-10,69,53,37,48,42,37,100,75,31,30.39,30.35,30.28,10,8,5,9,1,,0.00,0,,166
2012-11-11,75,60,46,63,57,45,100,85,61,30.44,30.40,30.36,10,8,1,9,2,,0.02,1,,68
2012-11-12,78,68,57,66,62,57,100,87,57,30.36,30.28,30.21,10,6,0,12,2,16,0.00,2,Fog-Rain,137
2012-11-13,77,65,51,64,60,52,100,88,65,30.29,30.21,30.15,10,7,2,10,3,18,0.00,5,Rain,353
2012-11-14,53,50,46,52,45,43,100,83,76,30.38,30.31,30.26,10,10,7,12,8,17,0.00,8,,16
2012-11-15,51,48,44,52,47,43,100,96,87,30.28,30.21,30.17,10,5,0,15,8,22,0.66,8,Fog-Rain-Thunderstorm,358
2012-11-16,55,50,46,52,47,45,100,88,72,30.31,30.25,30.21,10,8,3,8,6,,0.00,8,,4
2012-11-17,55,48,42,46,43,37,93,79,67,30.36,30.31,30.28,10,10,9,10,6,17,0.00,4,,12
2012-11-18,53,50,48,54,50,46,100,94,77,30.28,30.22,30.15,10,4,1,15,10,23,1.20,8,Rain,357
2012-11-19,60,56,53,54,52,50,100,87,72,30.20,30.15,30.11,10,8,2,14,9,22,0.00,7,Rain,355
2012-11-20,62,55,46,54,50,46,100,88,68,30.14,30.08,30.03,10,8,4,10,6,,0.00,2,,346
2012-11-21,64,54,44,46,44,39,100,78,45,30.13,30.09,30.05,10,8,4,12,4,18,0.00,0,,1
2012-11-22,64,52,39,41,35,27,93,62,24,30.20,30.15,30.11,10,10,9,15,6,21,0.00,0,,354
2012-11-23,69,51,33,48,40,32,100,72,31,30.19,30.09,29.95,10,10,6,9,2,,0.00,0,,233
2012-11-24,62,50,37,46,38,32,100,65,32,30.11,30.01,29.93,10,10,10,13,6,16,0.00,0,,322
2012-11-25,60,48,35,45,37,27,100,76,47,30.21,30.14,30.10,10,9,5,8,3,,0.00,0,,43
2012-11-26,66,50,33,45,36,25,100,74,21,30.27,30.20,30.15,10,8,2,10,1,,0.00,0,Rain,205
2012-11-27,64,52,39,55,48,39,100,91,49,30.21,30.17,30.11,10,7,1,10,1,17,0.11,3,Rain,296
2012-11-28,60,48,35,52,44,34,100,84,48,30.40,30.29,30.16,10,7,3,10,3,,0.00,3,,2
2012-11-29,60,46,33,45,39,34,100,82,51,30.47,30.41,30.38,10,8,2,9,2,,0.00,0,,50
2012-11-30,66,54,41,52,46,39,100,82,52,30.41,30.36,30.31,10,9,2,6,2,,0.00,0,,55